QPF
0.05 0.04 0.04 0.06 0.06 0.06 0.05 0.05 0.05 0.05 0.05 0.05 0.05 0.04 0.05 0.04 0.03 0.02 0.02 0.02 0.01 0.02 0.03 0.04 0.04 0.04 0.04 0.04 0.04 0.04 0.03 0.03 0.02 0.03 0.03 0.02 0.03 0.05 0.05 0.04 0.04 0.04 0.05
0.06 0.06 0.06 0.06 0.06 0.06 0.05 0.05 0.07 0.09 0.06 0.06 0.06 0.05 0.05 0.05 0.03 0.02 0.02 0.02 0.01 0.01 0.02 0.03 0.03 0.03 0.03 0.04 0.04 0.03 0.03 0.02 0.02 0.04 0.04 0.04 0.04 0.04 0.03 0.04 0.04 0.05 0.05
0.04 0.05 0.05 0.05 0.05 0.06 0.05 0.06 0.06 0.06 0.05 0.05 0.07 0.08 0.08 0.07 0.04 0.03 0.03 0.02 0.02 0.01 0.01 0.01 0.02 0.02 0.03 0.03 0.04 0.03 0.03 0.03 0.03 0.04 0.06 0.07 0.05 0.04 0.04 0.05 0.05 0.05 0.06
0.03 0.03 0.03 0.04 0.05 0.07 0.07 0.05 0.05 0.05 0.04 0.05 0.06 0.07 0.08 0.07 0.06 0.04 0.02 0.02 0.01 0.01 0.01 0.01 0.01 0.01 0.02 0.03 0.03 0.02 0.04 0.05 0.04 0.05 0.06 0.06 0.06 0.06 0.05 0.05 0.05 0.05 0.05
0.04 0.03 0.03 0.05 0.07 0.07 0.07 0.06 0.05 0.05 0.05 0.05 0.05 0.04 0.04 0.04 0.03 0.03 0.02 0.02 0.01 0.01 0.01 0.00 0.00 0.01 0.02 0.02 0.03 0.03 0.04 0.05 0.06 0.07 0.06 0.05 0.05 0.06 0.06 0.06 0.05 0.05 0.05
0.03 0.03 0.06 0.09 0.10 0.09 0.10 0.07 0.05 0.04 0.05 0.05 0.04 0.03 0.03 0.03 0.03 0.03 0.03 0.02 0.02 0.01 0.01 0.01 0.01 0.01 0.02 0.02 0.03 0.03 0.03 0.04 0.05 0.06 0.06 0.05 0.05 0.05 0.06 0.06 0.05 0.04 0.04
0.02 0.03 0.05 0.09 0.10 0.09 0.08 0.06 0.05 0.04 0.04 0.04 0.04 0.03 0.03 0.04 0.04 0.04 0.03 0.02 0.02 0.02 0.02 0.02 0.02 0.02 0.02 0.02 0.03 0.04 0.04 0.05 0.05 0.05 0.05 0.05 0.06 0.06 0.06 0.06 0.06 0.05 0.04
0.01 0.03 0.06 0.08 0.08 0.08 0.07 0.05 0.05 0.05 0.04 0.03 0.03 0.04 0.04 0.04 0.04 0.04 0.02 0.02 0.02 0.03 0.03 0.03 0.03 0.02 0.02 0.02 0.02 0.03 0.03 0.04 0.05 0.04 0.04 0.05 0.05 0.05 0.06 0.06 0.07 0.07 0.05
0.01 0.02 0.05 0.06 0.06 0.06 0.06 0.07 0.07 0.06 0.05 0.05 0.05 0.06 0.06 0.06 0.07 0.06 0.03 0.02 0.02 0.02 0.02 0.02 0.03 0.02 0.02 0.02 0.02 0.03 0.03 0.04 0.04 0.04 0.04 0.04 0.04 0.04 0.04 0.05 0.06 0.07 0.06
0.01 0.02 0.03 0.03 0.03 0.04 0.06 0.07 0.07 0.07 0.06 0.05 0.06 0.07 0.08 0.08 0.07 0.05 0.04 0.03 0.03 0.02 0.03 0.03 0.02 0.01 0.01 0.02 0.02 0.03 0.03 0.03 0.04 0.03 0.04 0.04 0.04 0.04 0.04 0.04 0.05 0.06 0.06
0.02 0.02 0.03 0.02 0.03 0.03 0.03 0.04 0.04 0.04 0.04 0.04 0.04 0.06 0.07 0.07 0.06 0.04 0.04 0.03 0.02 0.02 0.03 0.02 0.01 0.01 0.02 0.02 0.03 0.03 0.04 0.05 0.04 0.04 0.04 0.04 0.05 0.04 0.04 0.04 0.04 0.04 0.06
0.02 0.03 0.04 0.03 0.03 0.02 0.02 0.02 0.02 0.02 0.03 0.04 0.04 0.05 0.05 0.05 0.04 0.03 0.03 0.02 0.03 0.03 0.02 0.02 0.02 0.02 0.02 0.02 0.03 0.04 0.04 0.04 0.05 0.05 0.05 0.05 0.05 0.05 0.04 0.04 0.04 0.04 0.05
0.02 0.03 0.03 0.03 0.02 0.02 0.01 0.01 0.01 0.01 0.02 0.05 0.08 0.08 0.06 0.04 0.03 0.01 0.01 0.01 0.01 0.02 0.02 0.02 0.01 0.01 0.01 0.02 0.03 0.03 0.03 0.03 0.03 0.03 0.04 0.05 0.06 0.06 0.06 0.05 0.04 0.04 0.03
0.02 0.02 0.02 0.02 0.02 0.01 0.01 0.01 0.01 0.01 0.02 0.04 0.06 0.05 0.04 0.02 0.01 0.01 0.01 0.01 0.01 0.01 0.01 0.01 0.01 0.01 0.01 0.01 0.01 0.02 0.03 0.03 0.03 0.03 0.03 0.04 0.05 0.06 0.06 0.06 0.05 0.04 0.04
0.01 0.01 0.01 0.01 0.02 0.01 0.01 0.01 0.01 0.01 0.02 0.02 0.02 0.02 0.01 0.01 0.00 0.00 0.01 0.01 0.01 0.01 0.01 0.01 0.01 0.01 0.01 0.01 0.02 0.03 0.03 0.04 0.04 0.03 0.03 0.04 0.04 0.04 0.04 0.04 0.04 0.04 0.05
0.01 0.01 0.01 0.01 0.02 0.02 0.01 0.01 0.01 0.01 0.01 0.01 0.01 0.01 0.01 0.01 0.01 0.01 0.01 0.01 0.01 0.01 0.01 0.01 0.01 0.01 0.00 0.00 0.02 0.03 0.03 0.03 0.04 0.04 0.03 0.03 0.03 0.03 0.02 0.02 0.02 0.03 0.04
0.02 0.01 0.01 0.02 0.02 0.02 0.01 0.01 0.01 0.02 0.02 0.02 0.02 0.01 0.01 0.01 0.01 0.00 0.01 0.01 0.01 0.01 0.01 0.01 0.01 0.01 0.01 0.00 0.01 0.01 0.02 0.03 0.03 0.03 0.03 0.03 0.02 0.02 0.03 0.03 0.03 0.02 0.02
0.02 0.02 0.02 0.02 0.02 0.02 0.02 0.02 0.01 0.02 0.03 0.03 0.03 0.02 0.02 0.02 0.01 0.01 0.01 0.01 0.02 0.02 0.01 0.01 0.01 0.01 0.01 0.00 0.00 0.01 0.02 0.02 0.02 0.02 0.03 0.03 0.02 0.01 0.02 0.03 0.04 0.05 0.04
0.02 0.03 0.03 0.03 0.02 0.02 0.02 0.03 0.03 0.03 0.03 0.02 0.03 0.02 0.01 0.01 0.01 0.01 0.01 0.01 0.01 0.01 0.01 0.01 0.01 0.02 0.01 0.00 0.00 0.01 0.02 0.02 0.02 0.01 0.01 0.01 0.01 0.01 0.01 0.02 0.03 0.04 0.04
0.01 0.02 0.03 0.03 0.02 0.02 0.03 0.04 0.04 0.04 0.03 0.02 0.02 0.02 0.01 0.01 0.01 0.01 0.01 0.01 0.01 0.01 0.01 0.01 0.01 0.01 0.01 0.00 0.00 0.01 0.02 0.02 0.01 0.00 0.00 0.00 0.00 0.01 0.01 0.02 0.03 0.03 0.03
0.01 0.02 0.02 0.02 0.02 0.02 0.04 0.04 0.04 0.04 0.03 0.02 0.01 0.01 0.01 0.01 0.01 0.01 0.01 0.01 0.01 0.01 0.01 0.01 0.00 0.00 0.00 0.00 0.00 0.00 0.01 0.01 0.01 0.01 0.01 0.01 0.01 0.01 0.01 0.01 0.02 0.03 0.03
0.01 0.01 0.02 0.02 0.02 0.02 0.04 0.04 0.03 0.02 0.01 0.01 0.01 0.01 0.01 0.00 0.01 0.01 0.01 0.01 0.01 0.01 0.01 0.01 0.00 0.00 0.00 0.00 0.00 0.00 0.00 0.01 0.01 0.01 0.02 0.01 0.01 0.01 0.01 0.01 0.01 0.01 0.01
0.02 0.02 0.02 0.02 0.02 0.03 0.04 0.02 0.02 0.01 0.01 0.01 0.01 0.01 0.01 0.01 0.01 0.01 0.01 0.01 0.01 0.01 0.00 0.00 0.00 0.00 0.00 0.00 0.00 0.00 0.00 0.01 0.01 0.02 0.02 0.01 0.01 0.01 0.01 0.01 0.01 0.01 0.01
0.01 0.01 0.02 0.02 0.03 0.05 0.05 0.03 0.02 0.01 0.01 0.01 0.01 0.01 0.01 0.01 0.01 0.01 0.01 0.00 0.00 0.00 0.00 0.00 0.00 0.00 0.00 0.00 0.00 0.01 0.00 0.00 0.00 0.01 0.02 0.01 0.01 0.01 0.01 0.01 0.01 0.01 0.01
0.02 0.01 0.02 0.02 0.03 0.04 0.04 0.04 0.03 0.02 0.02 0.02 0.01 0.01 0.01 0.01 0.00 0.00 0.00 0.00 0.00 0.00 0.00 0.00 0.00 0.00 0.00 0.00 0.00 0.00 0.00 0.00 0.00 0.00 0.01 0.01 0.01 0.01 0.01 0.01 0.01 0.01 0.01
0.02 0.01 0.01 0.02 0.03 0.03 0.03 0.03 0.03 0.02 0.02 0.02 0.02 0.01 0.01 0.01 0.00 0.00 0.00 0.00 0.00 0.00 0.00 0.00 0.00 0.00 0.00 0.00 0.00 0.00 0.00 0.00 0.00 0.00 0.00 0.01 0.00 0.01 0.01 0.01 0.00 0.00 0.00
MSLP
1015.81 1016.39 1016.89 1017.29 1017.55 1017.70 1017.76 1017.75 1017.72 1017.71 1017.74 1017.82 1017.94 1018.10 1018.26 1018.42 1018.54 1018.62 1018.64 1018.62 1018.54 1018.43 1018.29 1018.15 1018.00 1017.87 1017.74 1017.62 1017.50 1017.37 1017.21 1017.02 1016.80 1016.54 1016.27 1016.01 1015.77 1015.57 1015.44 1015.38 1015.39 1015.45 1015.56
1015.72 1016.38 1016.95 1017.40 1017.71 1017.87 1017.94 1017.94 1017.92 1017.92 1017.97 1018.07 1018.22 1018.39 1018.58 1018.74 1018.87 1018.94 1018.95 1018.90 1018.81 1018.69 1018.55 1018.41 1018.27 1018.13 1018.00 1017.87 1017.73 1017.57 1017.37 1017.14 1016.88 1016.59 1016.29 1016.01 1015.76 1015.56 1015.44 1015.38 1015.40 1015.48 1015.59
1015.56 1016.33 1017.00 1017.53 1017.90 1018.12 1018.22 1018.24 1018.24 1018.26 1018.31 1018.43 1018.58 1018.77 1018.95 1019.11 1019.22 1019.27 1019.26 1019.20 1019.10 1018.97 1018.84 1018.70 1018.58 1018.45 1018.33 1018.19 1018.04 1017.85 1017.62 1017.35 1017.05 1016.73 1016.40 1016.10 1015.84 1015.64 1015.52 1015.49 1015.52 1015.61 1015.75
1015.44 1016.32 1017.11 1017.74 1018.20 1018.49 1018.63 1018.69 1018.70 1018.72 1018.77 1018.88 1019.02 1019.19 1019.35 1019.48 1019.56 1019.59 1019.56 1019.48 1019.38 1019.25 1019.12 1019.01 1018.90 1018.79 1018.68 1018.55 1018.38 1018.18 1017.92 1017.61 1017.27 1016.92 1016.56 1016.24 1015.97 1015.77 1015.66 1015.63 1015.69 1015.80 1015.96
1015.44 1016.45 1017.35 1018.09 1018.63 1018.98 1019.17 1019.25 1019.26 1019.27 1019.30 1019.36 1019.47 1019.60 1019.72 1019.82 1019.87 1019.87 1019.82 1019.73 1019.62 1019.49 1019.38 1019.27 1019.18 1019.09 1018.99 1018.86 1018.69 1018.47 1018.20 1017.86 1017.49 1017.10 1016.72 1016.37 1016.08 1015.88 1015.76 1015.75 1015.82 1015.95 1016.13
1015.65 1016.76 1017.76 1018.58 1019.19 1019.59 1019.80 1019.87 1019.87 1019.83 1019.81 1019.83 1019.88 1019.95 1020.03 1020.08 1020.10 1020.08 1020.01 1019.91 1019.79 1019.66 1019.55 1019.45 1019.36 1019.28 1019.19 1019.07 1018.90 1018.67 1018.38 1018.03 1017.64 1017.22 1016.81 1016.43 1016.12 1015.89 1015.77 1015.75 1015.83 1015.99 1016.19
1016.07 1017.25 1018.31 1019.19 1019.83 1020.25 1020.45 1020.50 1020.44 1020.35 1020.25 1020.19 1020.18 1020.19 1020.21 1020.23 1020.23 1020.19 1020.11 1020.00 1019.87 1019.74 1019.61 1019.50 1019.41 1019.32 1019.23 1019.10 1018.94 1018.71 1018.42 1018.07 1017.66 1017.22 1016.79 1016.38 1016.03 1015.77 1015.63 1015.60 1015.67 1015.85 1016.08
1016.67 1017.88 1018.96 1019.84 1020.48 1020.87 1021.03 1021.03 1020.90 1020.73 1020.55 1020.42 1020.33 1020.28 1020.26 1020.26 1020.23 1020.19 1020.10 1019.99 1019.85 1019.70 1019.55 1019.42 1019.30 1019.19 1019.08 1018.95 1018.78 1018.57 1018.29 1017.94 1017.54 1017.09 1016.63 1016.19 1015.81 1015.51 1015.33 1015.27 1015.34 1015.52 1015.78
1017.35 1018.53 1019.58 1020.43 1021.03 1021.36 1021.47 1021.39 1021.19 1020.94 1020.69 1020.47 1020.32 1020.23 1020.18 1020.16 1020.14 1020.09 1020.01 1019.89 1019.74 1019.57 1019.39 1019.22 1019.06 1018.91 1018.77 1018.63 1018.46 1018.26 1018.00 1017.67 1017.28 1016.84 1016.37 1015.91 1015.48 1015.14 1014.91 1014.81 1014.86 1015.04 1015.33
1017.98 1019.10 1020.08 1020.86 1021.38 1021.65 1021.69 1021.54 1021.28 1020.96 1020.65 1020.38 1020.19 1020.07 1020.01 1019.99 1019.98 1019.94 1019.87 1019.76 1019.59 1019.39 1019.17 1018.94 1018.72 1018.53 1018.35 1018.19 1018.02 1017.83 1017.60 1017.30 1016.94 1016.51 1016.04 1015.56 1015.09 1014.70 1014.41 1014.27 1014.28 1014.46 1014.77
1018.44 1019.47 1020.36 1021.04 1021.48 1021.69 1021.67 1021.47 1021.17 1020.81 1020.47 1020.19 1019.98 1019.85 1019.80 1019.79 1019.80 1019.79 1019.73 1019.62 1019.44 1019.21 1018.94 1018.66 1018.38 1018.12 1017.90 1017.71 1017.53 1017.35 1017.15 1016.88 1016.55 1016.15 1015.68 1015.19 1014.69 1014.24 1013.90 1013.71 1013.68 1013.84 1014.16
1018.66 1019.58 1020.36 1020.95 1021.32 1021.47 1021.42 1021.22 1020.91 1020.56 1020.23 1019.95 1019.76 1019.65 1019.61 1019.63 1019.66 1019.67 1019.63 1019.52 1019.33 1019.07 1018.76 1018.41 1018.07 1017.76 1017.48 1017.25 1017.06 1016.88 1016.69 1016.46 1016.16 1015.78 1015.33 1014.82 1014.30 1013.82 1013.43 1013.18 1013.11 1013.24 1013.56
1018.62 1019.43 1020.10 1020.61 1020.92 1021.05 1021.01 1020.83 1020.57 1020.27 1019.99 1019.75 1019.59 1019.51 1019.49 1019.53 1019.58 1019.60 1019.58 1019.47 1019.28 1019.00 1018.65 1018.26 1017.86 1017.48 1017.15 1016.87 1016.65 1016.46 1016.28 1016.06 1015.78 1015.42 1014.98 1014.48 1013.94 1013.43 1013.00 1012.71 1012.60 1012.71 1013.02
1018.36 1019.06 1019.64 1020.08 1020.37 1020.51 1020.51 1020.40 1020.22 1020.00 1019.79 1019.62 1019.50 1019.44 1019.45 1019.50 1019.56 1019.59 1019.57 1019.47 1019.27 1018.98 1018.60 1018.18 1017.73 1017.30 1016.91 1016.59 1016.32 1016.10 1015.90 1015.68 1015.41 1015.06 1014.64 1014.14 1013.61 1013.09 1012.64 1012.32 1012.18 1012.26 1012.55
1017.95 1018.55 1019.05 1019.45 1019.74 1019.92 1020.00 1019.99 1019.91 1019.80 1019.67 1019.56 1019.49 1019.46 1019.47 1019.51 1019.56 1019.59 1019.57 1019.47 1019.27 1018.98 1018.60 1018.16 1017.68 1017.21 1016.77 1016.39 1016.07 1015.80 1015.56 1015.32 1015.04 1014.70 1014.29 1013.81 1013.30 1012.78 1012.34 1012.01 1011.86 1011.91 1012.19
1017.48 1018.00 1018.46 1018.84 1019.15 1019.39 1019.55 1019.65 1019.69 1019.68 1019.64 1019.58 1019.53 1019.50 1019.50 1019.51 1019.54 1019.54 1019.51 1019.42 1019.24 1018.96 1018.60 1018.16 1017.68 1017.18 1016.70 1016.27 1015.89 1015.56 1015.27 1014.99 1014.69 1014.35 1013.95 1013.50 1013.02 1012.54 1012.12 1011.81 1011.66 1011.70 1011.95
1017.05 1017.52 1017.94 1018.31 1018.65 1018.96 1019.21 1019.41 1019.55 1019.63 1019.65 1019.63 1019.58 1019.53 1019.48 1019.45 1019.43 1019.41 1019.36 1019.27 1019.12 1018.89 1018.56 1018.16 1017.69 1017.20 1016.70 1016.22 1015.78 1015.39 1015.03 1014.71 1014.38 1014.03 1013.66 1013.24 1012.81 1012.39 1012.02 1011.74 1011.61 1011.65 1011.88
1016.73 1017.16 1017.55 1017.94 1018.31 1018.67 1019.00 1019.27 1019.48 1019.62 1019.67 1019.65 1019.58 1019.47 1019.36 1019.27 1019.19 1019.13 1019.08 1019.01 1018.90 1018.72 1018.47 1018.13 1017.71 1017.24 1016.75 1016.24 1015.76 1015.32 1014.91 1014.53 1014.18 1013.83 1013.47 1013.10 1012.73 1012.38 1012.08 1011.87 1011.77 1011.82 1012.03
1016.53 1016.94 1017.33 1017.72 1018.12 1018.51 1018.88 1019.21 1019.45 1019.60 1019.65 1019.60 1019.48 1019.31 1019.13 1018.96 1018.82 1018.73 1018.67 1018.63 1018.58 1018.48 1018.32 1018.07 1017.74 1017.33 1016.86 1016.37 1015.87 1015.38 1014.93 1014.52 1014.14 1013.78 1013.45 1013.13 1012.83 1012.56 1012.34 1012.20 1012.15 1012.21 1012.40
1016.46 1016.87 1017.25 1017.64 1018.05 1018.45 1018.84 1019.17 1019.42 1019.55 1019.57 1019.47 1019.28 1019.03 1018.77 1018.53 1018.35 1018.23 1018.18 1018.18 1018.19 1018.19 1018.14 1018.01 1017.78 1017.46 1017.05 1016.59 1016.09 1015.59 1015.12 1014.68 1014.28 1013.94 1013.63 1013.36 1013.13 1012.94 1012.80 1012.73 1012.72 1012.80 1012.97
1016.47 1016.88 1017.27 1017.66 1018.05 1018.45 1018.82 1019.13 1019.35 1019.45 1019.41 1019.25 1018.99 1018.67 1018.34 1018.04 1017.82 1017.69 1017.66 1017.70 1017.80 1017.91 1017.97 1017.97 1017.86 1017.64 1017.31 1016.90 1016.43 1015.94 1015.46 1015.00 1014.60 1014.26 1013.98 1013.76 1013.59 1013.47 1013.40 1013.39 1013.42 1013.51 1013.66
1016.51 1016.93 1017.32 1017.70 1018.08 1018.45 1018.79 1019.06 1019.23 1019.28 1019.19 1018.98 1018.66 1018.28 1017.90 1017.56 1017.31 1017.18 1017.17 1017.27 1017.44 1017.65 1017.83 1017.95 1017.95 1017.84 1017.61 1017.26 1016.83 1016.36 1015.88 1015.43 1015.02 1014.69 1014.43 1014.24 1014.11 1014.05 1014.04 1014.07 1014.13 1014.23 1014.36
1016.55 1016.98 1017.36 1017.73 1018.09 1018.42 1018.72 1018.95 1019.07 1019.07 1018.94 1018.68 1018.32 1017.91 1017.50 1017.14 1016.89 1016.76 1016.78 1016.92 1017.16 1017.44 1017.72 1017.93 1018.04 1018.02 1017.87 1017.59 1017.20 1016.75 1016.28 1015.83 1015.43 1015.09 1014.84 1014.67 1014.58 1014.55 1014.57 1014.63 1014.71 1014.81 1014.92
1016.54 1016.97 1017.35 1017.71 1018.04 1018.35 1018.61 1018.79 1018.88 1018.84 1018.68 1018.40 1018.03 1017.61 1017.19 1016.83 1016.59 1016.47 1016.51 1016.68 1016.95 1017.28 1017.62 1017.90 1018.07 1018.12 1018.02 1017.79 1017.44 1017.02 1016.55 1016.10 1015.69 1015.35 1015.09 1014.92 1014.84 1014.83 1014.87 1014.94 1015.03 1015.13 1015.22
1016.47 1016.90 1017.28 1017.62 1017.93 1018.21 1018.44 1018.60 1018.67 1018.62 1018.44 1018.17 1017.80 1017.39 1016.99 1016.65 1016.41 1016.30 1016.34 1016.51 1016.79 1017.13 1017.48 1017.78 1017.99 1018.07 1018.00 1017.79 1017.46 1017.05 1016.59 1016.13 1015.70 1015.35 1015.08 1014.90 1014.82 1014.80 1014.85 1014.93 1015.02 1015.12 1015.20
1016.33 1016.76 1017.13 1017.47 1017.77 1018.03 1018.24 1018.39 1018.44 1018.39 1018.23 1017.98 1017.64 1017.26 1016.89 1016.56 1016.33 1016.22 1016.24 1016.39 1016.64 1016.95 1017.27 1017.55 1017.74 1017.81 1017.75 1017.54 1017.21 1016.80 1016.33 1015.86 1015.42 1015.05 1014.77 1014.58 1014.48 1014.46 1014.50 1014.58 1014.67 1014.77 1014.85
Thickness
5732 5729 5725 5722 5717 5713 5708 5705 5702 5698 5694 5691 5688 5685 5682 5680 5677 5674 5671 5669 5668 5666 5665 5665 5663 5662 5661 5658 5657 5656 5655 5654 5654 5655 5656 5658 5659 5658 5657 5658 5659 5660 5660
5727 5723 5720 5716 5712 5708 5704 5700 5696 5694 5690 5687 5683 5680 5676 5674 5671 5668 5664 5662 5661 5659 5659 5657 5657 5654 5652 5650 5649 5647 5648 5648 5647 5646 5647 5648 5650 5649 5650 5650 5650 5651 5652
5724 5720 5716 5712 5709 5704 5700 5697 5692 5688 5685 5682 5679 5675 5671 5667 5665 5661 5659 5656 5654 5652 5650 5649 5648 5646 5646 5644 5641 5640 5639 5640 5641 5640 5639 5639 5640 5640 5641 5640 5641 5641 5643
5723 5719 5714 5709 5705 5700 5696 5692 5687 5683 5679 5676 5674 5670 5666 5661 5657 5655 5653 5650 5647 5645 5643 5641 5639 5638 5638 5635 5635 5634 5633 5632 5633 5633 5632 5631 5630 5629 5632 5633 5634 5634 5634
5721 5715 5711 5706 5701 5696 5691 5686 5681 5677 5673 5670 5667 5663 5660 5656 5653 5650 5646 5644 5642 5639 5636 5634 5631 5630 5629 5627 5625 5625 5625 5625 5625 5625 5625 5624 5623 5623 5622 5624 5625 5626 5627
5716 5711 5706 5701 5695 5691 5685 5681 5675 5671 5667 5664 5661 5657 5653 5649 5646 5643 5640 5638 5636 5633 5629 5627 5624 5622 5621 5619 5618 5617 5618 5617 5616 5616 5617 5616 5616 5615 5616 5616 5616 5617 5618
5710 5704 5700 5695 5690 5685 5679 5674 5670 5665 5661 5658 5654 5651 5647 5643 5640 5637 5634 5631 5630 5627 5622 5619 5616 5615 5613 5612 5611 5611 5610 5610 5609 5609 5609 5610 5609 5608 5608 5608 5609 5609 5611
5705 5700 5695 5691 5685 5679 5673 5669 5664 5660 5656 5652 5648 5644 5641 5639 5635 5631 5628 5625 5623 5620 5615 5612 5610 5609 5607 5606 5605 5606 5605 5603 5602 5603 5602 5603 5604 5603 5602 5601 5602 5603 5605
5699 5695 5690 5685 5680 5674 5668 5664 5659 5654 5651 5648 5643 5639 5636 5632 5628 5624 5621 5619 5615 5613 5610 5607 5605 5603 5602 5601 5600 5600 5598 5598 5597 5598 5597 5597 5598 5598 5598 5597 5597 5596 5598
5693 5688 5683 5679 5675 5669 5663 5658 5654 5650 5646 5643 5639 5635 5630 5627 5622 5619 5614 5611 5608 5606 5604 5602 5600 5598 5597 5596 5594 5595 5594 5593 5592 5591 5590 5590 5592 5592 5592 5592 5593 5592 5592
5687 5681 5677 5673 5669 5664 5659 5653 5649 5645 5641 5638 5634 5629 5625 5621 5617 5613 5609 5606 5603 5600 5599 5597 5595 5593 5592 5590 5589 5589 5588 5587 5586 5586 5586 5585 5585 5586 5587 5588 5588 5588 5587
5681 5676 5672 5667 5663 5658 5654 5649 5645 5641 5637 5633 5628 5623 5618 5615 5611 5608 5604 5601 5598 5596 5594 5592 5590 5588 5587 5585 5584 5584 5583 5582 5580 5580 5579 5579 5580 5580 5580 5581 5582 5582 5582
5675 5671 5666 5662 5657 5653 5649 5645 5640 5636 5633 5628 5623 5617 5614 5610 5606 5602 5599 5597 5595 5592 5590 5588 5586 5584 5582 5581 5580 5579 5577 5576 5575 5574 5573 5573 5573 5573 5574 5575 5576 5577 5578
5670 5666 5661 5657 5653 5649 5644 5640 5636 5632 5629 5624 5619 5614 5610 5606 5602 5599 5596 5593 5591 5588 5586 5583 5581 5579 5578 5577 5575 5574 5572 5571 5570 5569 5568 5568 5568 5568 5568 5569 5570 5571 5571
5665 5662 5658 5653 5649 5644 5640 5636 5632 5628 5624 5620 5616 5611 5607 5603 5599 5596 5592 5590 5587 5585 5582 5579 5577 5576 5574 5571 5569 5568 5568 5567 5566 5565 5564 5563 5561 5560 5560 5563 5564 5565 5566
5663 5659 5654 5650 5645 5641 5637 5633 5629 5625 5621 5617 5613 5609 5605 5600 5596 5593 5589 5586 5583 5581 5578 5576 5575 5573 5571 5564 5561 5561 5563 5563 5562 5561 5560 5559 5559 5557 5555 5556 5557 5558 5560
5661 5656 5652 5647 5643 5640 5636 5631 5627 5623 5619 5615 5611 5607 5603 5599 5595 5591 5587 5583 5580 5577 5575 5573 5571 5570 5566 5561 5558 5557 5558 5560 5559 5557 5556 5556 5556 5554 5555 5554 5553 5554 5554
5659 5654 5649 5645 5642 5638 5633 5629 5625 5621 5617 5613 5609 5605 5601 5597 5593 5589 5585 5581 5578 5575 5573 5571 5569 5567 5564 5559 5556 5555 5556 5557 5557 5555 5554 5553 5552 5552 5550 5552 5554 5554 5554
5656 5652 5648 5644 5640 5636 5632 5627 5623 5619 5615 5611 5606 5603 5600 5596 5592 5588 5583 5580 5577 5574 5572 5570 5568 5565 5562 5558 5555 5552 5556 5557 5555 5554 5552 5550 5550 5545 5544 5548 5550 5552 5553
5654 5650 5646 5642 5637 5633 5630 5625 5621 5617 5613 5609 5605 5602 5598 5595 5591 5587 5583 5581 5577 5574 5572 5571 5568 5565 5563 5558 5554 5551 5556 5557 5556 5554 5552 5547 5545 5543 5542 5546 5548 5550 5551
5651 5648 5644 5639 5635 5632 5628 5623 5619 5615 5612 5608 5604 5601 5597 5594 5591 5586 5583 5580 5578 5575 5573 5571 5569 5566 5563 5559 5555 5552 5553 5555 5555 5555 5553 5550 5544 5542 5542 5542 5545 5546 5547
5649 5646 5642 5637 5634 5630 5626 5622 5618 5615 5611 5607 5603 5600 5597 5594 5592 5587 5583 5581 5578 5576 5575 5573 5571 5570 5566 5562 5558 5554 5551 5549 5551 5551 5551 5549 5544 5542 5542 5543 5544 5544 5544
5648 5645 5641 5636 5632 5629 5626 5621 5618 5614 5610 5606 5602 5599 5596 5593 5591 5587 5585 5583 5581 5580 5579 5577 5575 5573 5571 5566 5560 5556 5553 5550 5550 5551 5548 5546 5545 5544 5546 5545 5544 5544 5548
5646 5643 5640 5636 5631 5628 5626 5622 5618 5614 5609 5605 5602 5599 5597 5594 5591 5588 5588 5586 5584 5582 5581 5579 5577 5575 5573 5570 5566 5563 5559 5554 5554 5554 5552 5549 5548 5548 5548 5549 5550 5551 5552
5646 5642 5639 5636 5632 5629 5625 5622 5618 5614 5609 5605 5602 5600 5599 5597 5593 5591 5589 5587 5584 5582 5578 5578 5577 5575 5573 5568 5561 5560 5561 5559 5557 5553 5556 5558 5558 5558 5558 5557 5557 5556 5555
5645 5642 5639 5636 5633 5629 5625 5622 5618 5614 5609 5606 5603 5603 5601 5599 5597 5594 5592 5587 5583 5580 5576 5573 5570 5572 5569 5564 5561 5559 5556 5554 5551 5552 5560 5561 5561 5560 5560 5559 5559 5559 5558